STARLINK-32023, 60197

Orbit data source: Space-Track

STARLINK-32023, 60197 is a payload satellite owned by SpaceX/Seattle (US) in LEO that was launched on Wed, 03 Jul 2024 UTC via an FALCON 9 launch vehicle from the Air Force Eastern Test Range (AFETR). Payloads include a variety of satellites, spacecraft, and rockets equipped with specific instruments for various scientific and technological missions. These include communications satellites like Starlink; space stations such as the ISS; scientific satellites like the Hubble; Earth observation satellites from companies like Planet Labs, Umbra, and HawkEye 360; GPS; miniature CubeSats for education and research; and military/defense satellites.

Loading next visibility...
STARLINK-32023 details
Identifier
60197, 2024-124Q
Orbit
LEO
Last TLE update14 hours ago
Origin
Flag of USSpaceX/Seattle (US)
ManufacturerSpaceX/Seattle
MissionOperational Commercial Communications
Bus & MotorSTARLINK V2M, Unknown motor
Mass730 kg wet, ~700 kg dry
Launch date (UTC)
2024-07-03 (7 months ago)
Launch vehicle
FALCON 9
Launch site
Air Force Eastern Test Range (AFETR)
Object type
Payload
Rocket body
Debris
Shape & HBRBox + 2 Pan, 29 m
Radar Cross Section36.964 m², Large (>1 m²)

Expand to show TLE details & history

TLE from 14 hours ago
0 STARLINK-32023
1 60197U 24124Q   25023.13444630  .00024976  00000-0  85130-3 0  9991
2 60197  53.1588  69.7850 0001547  76.8163 283.3010 15.30247955 32528
Epoch: 2025-01-23T03:13Z
Definitive object data (Epoch: 2025-01-23T03:13:36.16Z)
Latitude-0.00004°
Longitude-101.33202°
Altitude475.728 km
Speed7.629 km/s
True Right ascension04h 39m 08s
True Declination0° 00' 00"
Sunlit
Object was in full shadow at TLE epoch
Visualization TLE readout
Latitude49.26475°
Longitude-44.22282°
Altitude479.585 km
Speed7.632 km/s
Apparent Right ascension07h 37m 15s
Apparent Declination6° 51' 02"
Sunlit
Object is in full shadow
Visualization observer readout
Local Sidereal Time18:51:17
Azimuth344.547° N
Elevation-42.044°
Doppler factor1
Orbital elements
Apogee altitude476.389 km
Perigee altitude474.268 km
Semi-major axis6,853.466 km
Eccentricity0.0001547
Inclination53.1588°
RAAN69.785°
Arg. of periapsis76.8163°
True anomaly283.28375°
Mean anomaly283.301°
Eccentric anomaly283.29237°
Mean motion3.82541 °/min
BSTAR0.0008513
Orbital period94.11 mins
Loading maneuver chart data...
Loading historical data...
Loading historical data...
Loading historical data...
Loading historical data...
Loading historical data...
Loading historical data...
Loading historical data...

STARLINK-32023 Visibility forecast

Observer location: undefined°, undefined

Span
Click to sort rows by Start time (UTC) header in descending order
Start Az.
Max El. time (UTC)
Max El. Az.
Max El.
End time (UTC)
End Az.
4 mins2025-01-24 04:27:31.387Z170.976° S2025-01-24 04:29:31.387Z135.289° SSE17.891°2025-01-24 04:31:31.387Z94.51° ESE
5 mins2025-01-24 06:05:31.387Z259.084° W2025-01-24 06:07:31.387Z329.177° NNW37.183°2025-01-24 06:10:31.387Z38.895° NE
4 mins2025-01-24 11:02:31.387Z346.917° N2025-01-24 11:04:31.387Z32.175° NE21.11°2025-01-24 11:06:31.387Z72.141° E
5 mins2025-01-24 12:40:31.387Z294.175° NW2025-01-24 12:42:31.387Z215.393° SW40.118°2025-01-24 12:45:31.387Z146.274° SSE
|